Regional Weather Roundup
Issued by NWS Austin/San Antonio, TX

Home | Current Version | Previous Version | Text Only | Print | Product List | Glossary On
Versions: 1 2 3 4 5 6 7 8 9 10 11 12 13 14 15 16 17 18 19 20 21 22 23 24 25 26 27 28 29 30 31 32 33 34 35 36 37 38 39 40 41 42 43 44 45 46 47 48 49 50
000
ASUS44 KEWX 270811
RWREWX
SOUTH TEXAS REGIONAL WEATHER ROUNDUP
NATIONAL WEATHER SERVICE AUSTIN/SAN ANTONIO TX
200 AM CST MON JAN 27 2020

NOTE: "FAIR" INDICATED FEW OR NO CLOUDS BELOW 12,000 FEET WITH NO
SIGNIFICANT WEATHER AND/OR OBSTRUCTIONS TO VISIBILITY.

* - THESE STATIONS ARE NOT NWS OR FAA STATIONS...AND ARE NOT SUBJECT
    TO NWS AND FAA QUALITY CONTROL.

TXZ171-172-183>190-270900-
TEXAS HILL COUNTRY AND EDWARDS PLATEAU

CITY           SKY/WX    TMP DP  RH WIND       PRES   REMARKS
JUNCTION       CLEAR     41  37  86 NW3       30.02F
*LLANO         CLEAR     46  43  87 CALM      30.05F
BURNET         CLEAR     48  45  89 CALM      30.03F
*HORSESHOE BAY NOT AVBL
*LAGO VISTA    CLEAR     50  49  95 E5        30.02F WCI  49
*KERRVILLE     CLEAR     41  38  89 CALM      30.02S
*FREDERICKSBRG CLEAR     41  39  91 CALM      30.02S
*ROCKSPRINGS   CLEAR     52  39  62 SE8       30.05F
*BOERNE        CLEAR     43  43 100 CALM      30.03S
*CASTROVILLE   CLEAR     55  46  71 CALM      30.02S
HONDO          CLEAR     49  43  80 NE7       30.01S WCI  46
*UVALDE        CLEAR     54  45  72 NE6       30.01S
DEL RIO        CLEAR     49  38  65 CALM      29.97F
*LAUGHLIN AFB  NOT AVBL
*SPOFFORD      NOT AVBL
*EAGLE PASS    CLEAR     50  36  57 NE6       29.98S WCI  48
CARRIZO SPRGS  CLEAR     46  36  66 CALM      29.97S
*FAITH RANCH   CLEAR     50  41  71 S6        29.98S WCI  48
$$

TXZ173-191>194-202-209-217>225-228-270900-
CENTRAL AND SOUTH CENTRAL TEXAS

CITY           SKY/WX    TMP DP  RH WIND       PRES   REMARKS
GEORGETOWN     CLEAR     46  44  93 W3        30.04F
*TAYLOR        CLEAR     42  41  97 CALM      30.02F FOG
AUSTIN/BERGSTM CLEAR     45  43  93 CALM      30.01F
AUSTIN/MABRY   CLEAR     51  47  86 CALM      30.02F
*PFLUGERVILLE  CLEAR     48  48 100 N5        30.02F WCI  46
SAN MARCOS     CLEAR     46  45  96 N7        30.02F WCI  42
NEW BRAUNFELS  CLEAR     51  47  86 N6        30.00S
*RANDOLPH AFB  CLEAR     51  47  84 N3        30.01S
*SEGUIN        CLEAR     49  46  90 NE6       30.04F WCI  46
SAN ANTONIO    CLEAR     53  47  79 CALM      30.01F
STINSON FIELD  CLEAR     55  47  74 E5        29.99F
*KELLY FIELD   CLEAR     52  46  78 CALM      29.98F
*PLEASANTON    CLEAR     51  44  77 E3        30.00F
*KENEDY        CLEAR     53  47  79 E5        30.02S
*LA GRANGE     CLEAR     47  47 100 CALM      30.00S
*GIDDINGS      CLEAR     52  50  93 CALM      30.02F
*GONZALES      CLEAR     53  49  87 NE3       30.00S
$$

TXZ163>164-176>182-195>201-210>213-226-227-235-270900-
SOUTHEAST TEXAS

CITY           SKY/WX    TMP DP  RH WIND       PRES   REMARKS
COLLEGE STN    CLEAR     50  47  89 NE3       30.01F
*BRYAN         CLEAR     48  48 100 NE3       30.02F
*CALDWELL      CLEAR     48  48  99 CALM      30.02S
*CROCKETT      NOT AVBL
*BRENHAM       CLEAR     48  47  97 CALM      30.03S
HUNTSVILLE     FOG       53  51  93 E3        30.02F VSB 1/4
CONROE         FOG       53  52  96 N3        30.03S VSB 1/2
HOUSTON BUSH   FOG       54  53  97 E7        30.02S VSB 1/4
HOUSTON HOBBY  CLOUDY    58  56  93 E6        30.01S FOG
*HOUSTON SW AP CLOUDY    56  56 100 CALM      30.02F FOG
PEARLAND       CLOUDY    59  55  87 E6        30.03S
HOUSTON HOOKS  FOG       55  53  93 CALM      30.02S VSB 1/4
ELLINGTON FLD  NOT AVBL
SUGAR LAND     CLOUDY    53  52  96 SE3       30.01S
*HOUSTON EXEC  FAIR      46  46 100 CALM      30.03S FOG
*CLEVELAND MUN CLOUDY    54  54  99 CALM      30.03S FOG
*WHARTON       NOT AVBL
*COLUMBUS      FAIR      47  43  85 NE3       30.02F
*EAGLE LAKE    CLEAR     52  50  93 N5        30.01
$$

TXZ214>216-236>238-270900-
THE UPPER TEXAS COAST

CITY           SKY/WX    TMP DP  RH WIND       PRES   REMARKS
*ORANGE        CLOUDY    56  54  91 N3        30.02F
PORT ARTHUR    CLOUDY    56  53  90 N6        30.00F
GALVESTON      CLOUDY    60  58  92 NE6       30.01S
ANGLETON       CLOUDY    59  57  93 NE5       30.01S
*BAY CITY      FOG       53  53 100 CALM      30.00S VSB 1/2
PALACIOS       FOG       55  53  93 CALM      29.99F VSB 1/4
$$

TXZ229>234-239>247-270900-
TEXAS COASTAL BEND AND RIO GRANDE PLAINS

CITY           SKY/WX    TMP DP  RH WIND       PRES   REMARKS
VICTORIA       CLEAR     53  49  86 NE6       30.00S
*BEEVILLE      NOT AVBL
ROCKPORT       FOG       54  50  86 CALM      29.98F VSB 1/4
*PORT ARANSAS  FOG       57  57  97 CALM      30.00S VSB 1/2
*PORT LAVACA   NOT AVBL
*INGLESIDE     FOG       55  55  98 CALM      29.98S VSB 1/4
CORPUS CHRISTI FOG       53  53 100 SE3       29.98F VSB 1/2
CORPUS NAS     FOG       53  53 100 S3        29.98S VSB 1/4
*ROBSTOWN        N/A     53  52  95 E3        29.99R FOG
ALICE          FOG       53  53 100 CALM      29.98S VSB 1/4
KINGSVILLE NAS FOG       52  52 100 CALM      29.98S VSB 1/4
COTULLA        CLEAR     56  48  74 E5        29.99R
LAREDO         CLEAR     59  51  75 SE7       29.98S
$$

TXZ248>255-270900-
DEEP SOUTH TEXAS

CITY           SKY/WX    TMP DP  RH WIND       PRES   REMARKS
BROWNSVILLE    FAIR      56  54  93 W7        29.98R
PORT ISABEL    FOG       57  55  93 W5        29.97S VSB 3/4
HARLINGEN      FOG       59  59 100 SW6       29.99R VSB 1/4
*HEBBRONVILLE  RAIN      53  53  97 SW3       30.00F VSB 1/4
MCALLEN        CLOUDY    62  59  90 SE5       30.00S
*WESLACO       CLOUDY    60  58  93 SW6       29.99  FOG
FALFURRIAS     CLOUDY    56  54  93 SW5       29.99R VSB 1/4
EDINBURG       CLOUDY    59  58  96 CALM      30.00S FOG
*ZAPATA        FAIR      53  43  69 E3        29.99F
$$

TXZ213>215-236>238-242>244-246-247-251-254-255-270900-
CMAN STATIONS

STATION/POSITION TIME  TEMP    WIND        PRES    WAVE
                       AIR SEA DIR/SP/G            HT/PER
                 (UTC) (F)     (DEG/KT/KT) (MB)    (FT/S)
SABINE PASS      0718   56 61   10/  8/ 10 1017.8
SEA RIM ST PARK  0800   55      20/  4/  5 1015.9
NORTH JETTY/GLS  0718   59 60   70/  8/  9 1015.0
EAGLE POINT      0718   58 61   40/  8/  9 1015.7
MORGANS POINT    0718   56 60   70/  7/ 10 1016.4
PORT O`CONNOR    0718   61 63   30/  3/  4 1015.2
PORT ARANSAS     0800   61 61  150/  3/  3 1015.0
MALAQUITE BEACH  0718   60 63  140/  3/  3 1015.0
BAFFIN BAY       0730   62 67  110/  3/  4 1015.4
PORT ISABEL      0730   63 66   70/  6/  7 1014.9
$$




USA.gov is the U.S. government's official web portal to all federal, state and local government web resources and services.